Nalchik, Russia

1:56 AM MSK on September 21, 2017 (GMT +0300)
Nalchik

Weather History for URMN - September, 2013

Change the Weather History Date:

Thursday, September 19, 2013

  Actual Average Record
Temperature  
Mean Temperature 68 °F -  
Max Temperature 83 °F - - ()
Min Temperature 53 °F - - ()
Cooling Degree Days 3    
Growing Degree Days 18 (Base 50)    
Moisture  
Dew Point 54 °F    
Average Humidity 58    
Maximum Humidity 94    
Minimum Humidity 23    
Precipitation  
Precipitation 0.00 in - - ()
Sea Level Pressure  
Sea Level Pressure 29.73 in    
Wind  
Wind Speed 4 mph ()    
Max Wind Speed 9 mph    
Max Gust Speed -    
Visibility 7.1 miles    
Events      
T = Trace of Precipitation, MM = Missing Value Source: Averaged Metar Reports

Daily Weather History Graph

Daily Weather History Graph

Search for Another Location

Airport or City:

Trip Planner

Search our weather history database for the weather conditions in past years. The results will help you decide how hot, cold, wet, or windy it might be!

Date:

Astronomy

Sep. 19, 2013 Rise Set
Actual Time 6:49 AM MSK 7:08 PM MSK
Civil Twilight 6:20 AM MSK 7:37 PM MSK
Nautical Twilight 5:46 AM MSK 8:10 PM MSK
Astronomical Twilight 5:12 AM MSK 8:45 PM MSK
Moon 6:51 PM MSK (9/19) 6:34 AM MSK (9/19)
Length of Visible Light 13h 16m
Length of Day
12h 19m
Full, 100% of the Moon is Illuminated
Sep 19
Full
Sep 19
Full
Sep 27
Last Quarter
Oct 5
New
Oct 12
First Quarter

Hourly Weather History & Observations

Time (MSK) Temp. Heat Index Dew Point Humidity Pressure Visibility Wind Dir Wind Speed Gust Speed Precip Events Conditions
12:00 AM 60.8 °F - 55.4 °F 82% 29.71 in 6.2 mi West 6.7 mph - N/A   Mostly Cloudy
1:00 AM 59 °F - 54 °F 78% 29.71 in 12 mi SW 4.5 mph - -   Clear
1:00 AM 59.0 °F - 55.4 °F 88% 29.71 in 6.2 mi WSW 4.5 mph - N/A   Scattered Clouds
2:00 AM 60.8 °F - 53.6 °F 77% 29.71 in 6.2 mi West 4.5 mph - N/A   Scattered Clouds
3:00 AM 60.8 °F - 53.6 °F 77% 29.71 in 6.2 mi SW 6.7 mph - N/A   Clear
4:00 AM 57 °F - 53 °F 81% 29.70 in 12 mi WSW 6.7 mph - -  
4:00 AM 57.2 °F - 51.8 °F 82% 29.71 in 6.2 mi West 4.5 mph - N/A   Clear
5:00 AM 55.4 °F - 51.8 °F 88% 29.71 in 6.2 mi West 4.5 mph - N/A   Clear
6:00 AM 53.6 °F - 51.8 °F 94% 29.71 in 6.2 mi Calm Calm - N/A   Scattered Clouds
7:00 AM 57 °F - 52 °F 78% 29.73 in 12 mi SSW 2.2 mph - -  
7:00 AM 57.2 °F - 51.8 °F 82% 29.74 in 6.2 mi West 4.5 mph - N/A   Mostly Cloudy
7:30 AM 57.2 °F - 51.8 °F 82% 29.74 in 6.2 mi WSW 4.5 mph - N/A   Mostly Cloudy
8:00 AM 60.8 °F - 51.8 °F 72% 29.74 in 6.2 mi WSW 4.5 mph - N/A   Mostly Cloudy
8:30 AM 62.6 °F - 53.6 °F 72% 29.74 in 6.2 mi SW 2.2 mph - N/A   Scattered Clouds
9:00 AM 66.2 °F - 53.6 °F 64% 29.74 in 6.2 mi Calm Calm - N/A   Partly Cloudy
9:30 AM 69.8 °F - 53.6 °F 56% 29.74 in 6.2 mi SSE 4.5 mph - N/A   Partly Cloudy
10:00 AM 71 °F - 53 °F 43% 29.73 in 12 mi East 2.2 mph - -   Clear
10:00 AM 71.6 °F - 53.6 °F 53% 29.74 in 6.2 mi SSE 2.2 mph - N/A   Partly Cloudy
10:30 AM 73.4 °F - 55.4 °F 53% 29.74 in 6.2 mi SSE 2.2 mph - N/A   Partly Cloudy
11:00 AM 75.2 °F - 53.6 °F 47% 29.74 in 6.2 mi Calm Calm - N/A   Partly Cloudy
11:30 AM 75.2 °F - 55.4 °F 50% 29.74 in 6.2 mi East 4.5 mph - N/A   Partly Cloudy
12:00 PM 77.0 °F - 55.4 °F 47% 29.74 in 6.2 mi ESE 6.7 mph - N/A   Partly Cloudy
12:30 PM 78.8 °F - 55.4 °F 44% 29.74 in 6.2 mi ESE 6.7 mph - N/A   Partly Cloudy
1:00 PM 80 °F - 54 °F 30% 29.66 in 12 mi East 4.5 mph - -   Scattered Clouds
1:00 PM 78.8 °F - 53.6 °F 42% 29.71 in 6.2 mi SSE 6.7 mph - N/A   Partly Cloudy
1:30 PM 80.6 °F - 51.8 °F 37% 29.71 in 6.2 mi East 2.2 mph - N/A   Partly Cloudy
2:00 PM 80.6 °F - 51.8 °F 37% 29.71 in 6.2 mi SSE 2.2 mph - N/A   Partly Cloudy
2:30 PM 82.4 °F - 51.8 °F 35% 29.71 in 6.2 mi SE 4.5 mph - N/A   Scattered Clouds
3:00 PM 82.4 °F - 51.8 °F 35% 29.71 in 6.2 mi SSE 6.7 mph - N/A   Scattered Clouds
3:30 PM 82.4 °F - 51.8 °F 35% 29.71 in 6.2 mi ESE 4.5 mph - N/A   Partly Cloudy
4:00 PM 83 °F - 51 °F 23% 29.64 in 12 mi East 6.7 mph - -   Scattered Clouds
4:00 PM 82.4 °F - 50.0 °F 32% 29.71 in 6.2 mi ESE 6.7 mph - N/A   Scattered Clouds
4:30 PM 80.6 °F - 50.0 °F 34% 29.71 in 6.2 mi East 6.7 mph - N/A   Mostly Cloudy
5:00 PM 80.6 °F 80.3 °F 53.6 °F 39% 29.74 in 6.2 mi East 4.5 mph - N/A   Mostly Cloudy
5:30 PM 78.8 °F - 57.2 °F 47% 29.74 in 6.2 mi NE 8.9 mph - N/A   Mostly Cloudy
6:00 PM 78.8 °F - 57.2 °F 47% 29.74 in 6.2 mi East 8.9 mph - N/A   Mostly Cloudy
6:30 PM 75.2 °F - 57.2 °F 53% 29.77 in 6.2 mi East 6.7 mph - N/A   Mostly Cloudy
7:00 PM 74 °F - 56 °F 43% 29.71 in 6 mi ENE 2.2 mph - -  
7:00 PM 73.4 °F - 55.4 °F 53% 29.77 in 6.2 mi East 4.5 mph - N/A   Mostly Cloudy
7:30 PM 73.4 °F - 55.4 °F 53% 29.77 in 6.2 mi East 2.2 mph - N/A   Mostly Cloudy
8:00 PM 69.8 °F - 55.4 °F 60% 29.77 in 6.2 mi Calm Calm - N/A   Mostly Cloudy
8:30 PM 69.8 °F - 55.4 °F 60% 29.80 in 6.2 mi SSW 2.2 mph - N/A   Scattered Clouds
9:00 PM 68.0 °F - 57.2 °F 68% 29.80 in 6.2 mi WNW 6.7 mph - N/A   Scattered Clouds
10:00 PM 65 °F - 57 °F 69% 29.78 in 12 mi SW 4.5 mph - -   Clear
10:00 PM 64.4 °F - 57.2 °F 77% 29.80 in 6.2 mi West 4.5 mph - N/A   Scattered Clouds
11:00 PM 62.6 °F - 55.4 °F 77% 29.80 in 6.2 mi NW 8.9 mph - N/A   Mostly Cloudy